Flag for U.S.A. Weather past 2 weeks in Sedona, Arizona, U.S.A.

Now
64 °F

Thundershowers. Broken clouds.


Feels Like: 64 °F
Forecast: 55 / 69 °F
Wind: 5 mph from Northeast

Location: Sedona Airport

Current Time: May 4, 2015 at 4:13:38 PM

Latest Report: May 4, 2015 at 3:55 PM


Visibility: 10 mi

Pressure: 29.92 "Hg

Humidity: 46%

Dew point: 43 °F

Location of SedonaLocation

Historic Weather in Sedona — Graph

°F

Sedona temperature yesterday

Maximum temperature yesterday: 81 °F (at 1:15 PM)
Minimum temperature yesterday: 61 °F (at 4:35 AM)
Average temperature yesterday: 69 °F

Past Weeks' High & Low Weather Summary

 TemperatureHumidityPressure
High86 °F (Apr 30, 2:15 PM)100% (Apr 26, 6:35 AM)30.20 "Hg (Apr 26, 6:35 AM)
Low39 °F (Apr 26, 2:15 AM)11% (Apr 20, 1:35 PM)29.77 "Hg (Apr 26, 2:15 AM)
Average62 °F37%29.99 "Hg
* Reported Apr 19 2:15 PM — May 4 2:55 PM, Sedona, Weather by CustomWeather, © 2015

Note: Actual official high and low records may vary slightly from our data, if they occured in-between our weather recording intervals... More about our weather records

Advertising

Sedona weather history for previous 24 hours

 ConditionsComfort  
Time TempWeatherWind HumidityBarometerVisibility
2:55 PM
Mon, May 4
63 °FLight rain. Broken clouds.3 mph49%29.94 "Hg10 mi
1:55 PM66 °FThundershowers. Broken clouds.13 mph43%29.95 "Hg10 mi
1:35 PM68 °FSunny.3 mph40%29.95 "Hg10 mi
1:15 PM68 °FScattered clouds.8 mph40%29.96 "Hg10 mi
12:55 PM64 °FScattered clouds.6 mph49%29.98 "Hg10 mi
12:35 PM64 °FScattered clouds.5 mph52%29.98 "Hg10 mi
12:15 PM64 °FSunny.5 mph52%29.99 "Hg10 mi
11:55 AM61 °FSunny.5 mph55%30.00 "Hg10 mi
11:35 AM61 °FScattered clouds.7 mph59%30.00 "Hg10 mi
11:15 AM61 °FThundershowers. Scattered clouds.7 mph59%30.01 "Hg10 mi
10:55 AM61 °FPartly sunny.8 mph59%30.02 "Hg10 mi
10:35 AM59 °FThundershowers. Partly sunny.8 mph63%30.02 "Hg10 mi
10:15 AM57 °FThundershowers. Cloudy.12 mph77%30.03 "Hg10 mi
9:55 AM55 °FThundershowers. Mostly cloudy.3 mph77%30.03 "Hg10 mi
9:35 AM55 °FDrizzle. More clouds than sun.6 mph77%30.03 "Hg10 mi
9:15 AM55 °FMore clouds than sun.3 mph77%30.03 "Hg10 mi
8:55 AM55 °FOvercast.6 mph77%30.04 "Hg10 mi
8:35 AM54 °FMore clouds than sun.7 mph88%30.03 "Hg10 mi
8:15 AM54 °FLight rain. More clouds than sun.6 mph88%30.04 "Hg10 mi
7:55 AM55 °FCloudy.7 mph77%30.03 "Hg10 mi
7:35 AM55 °FMostly cloudy.3 mph77%30.04 "Hg10 mi
7:15 AM55 °FScattered clouds.3 mph72%30.03 "Hg10 mi
6:55 AM55 °FScattered clouds.No wind72%30.03 "Hg10 mi
6:35 AM54 °FBroken clouds.No wind77%30.02 "Hg10 mi
6:15 AM54 °FMostly cloudy.No wind77%30.02 "Hg10 mi
5:55 AM54 °FPartly sunny.3 mph77%30.00 "Hg10 mi
5:35 AM54 °FScattered clouds.5 mph72%29.99 "Hg10 mi
5:15 AM55 °FClear.6 mph63%30.00 "Hg10 mi
4:55 AM57 °FPassing clouds.9 mph55%29.99 "Hg10 mi
4:35 AM57 °FPassing clouds.6 mph55%29.99 "Hg10 mi
4:15 AM59 °FClear.No wind51%29.98 "Hg10 mi
3:55 AM59 °FThunderstorms. Clear.6 mph51%29.98 "Hg10 mi
3:35 AM59 °FClear.8 mph51%29.97 "Hg10 mi
3:15 AM59 °FClear.9 mph51%29.97 "Hg10 mi
2:55 AM59 °FClear.7 mph51%29.97 "Hg10 mi
2:35 AM59 °FClear.9 mph51%29.99 "Hg10 mi
2:15 AM59 °FPassing clouds.15 mph55%29.99 "Hg10 mi
1:55 AM59 °FPassing clouds.16 mph55%30.00 "Hg10 mi
1:35 AM61 °FPartly cloudy.20 mph52%30.01 "Hg10 mi
1:15 AM63 °FPassing clouds.17 mph39%29.99 "Hg10 mi
12:55 AM63 °FClear.7 mph37%29.99 "Hg10 mi
12:35 AM63 °FClear.8 mph37%29.96 "Hg10 mi
12:15 AM63 °FClear.10 mph37%29.96 "Hg10 mi
11:55 PM
Sun, May 3
63 °FClear.12 mph37%29.96 "Hg10 mi
11:35 PM63 °FClear.12 mph37%29.96 "Hg10 mi
11:15 PM63 °FClear.14 mph39%29.96 "Hg10 mi
10:55 PM63 °FPassing clouds.13 mph39%29.97 "Hg10 mi
10:35 PM63 °FClear.14 mph39%29.97 "Hg10 mi
10:15 PM63 °FClear.13 mph39%29.96 "Hg10 mi
9:55 PM63 °FClear.16 mph39%29.97 "Hg10 mi
9:35 PM63 °FClear.10 mph37%29.97 "Hg10 mi
9:15 PM64 °FClear.10 mph34%29.97 "Hg10 mi
8:55 PM64 °FPassing clouds.9 mph34%29.96 "Hg10 mi
8:15 PM68 °FPassing clouds.3 mph26%29.95 "Hg10 mi
7:55 PM68 °FClear.No wind26%29.95 "Hg10 mi
7:35 PM70 °FClear.5 mph25%29.94 "Hg10 mi
7:15 PM70 °FClear.9 mph25%29.93 "Hg10 mi
6:55 PM70 °FSunny.7 mph25%29.93 "Hg10 mi
6:35 PM72 °FSunny.12 mph23%29.93 "Hg10 mi
6:15 PM73 °FSunny.12 mph22%29.93 "Hg10 mi
5:55 PM73 °FScattered clouds.10 mph23%29.93 "Hg10 mi
5:35 PM75 °FScattered clouds.9 mph22%29.93 "Hg10 mi
5:15 PM77 °FSunny.14 mph21%29.93 "Hg10 mi
4:55 PM75 °FScattered clouds.8 mph22%29.93 "Hg10 mi
4:15 PM77 °FSunny.9 mph21%29.94 "Hg10 mi
Weather by CustomWeather, © 2015

See weather overviewHow to use our weather pages